Location: North Evanston
(42.0634°N, 87.6976°W)
Time: 10:46:28
(UTC+00:00)

Vanguard 2 Rocket - Pass Details

Date: 10 May 2026
Orbit: 553 x 3286 km, 32.9° (Epoch: 11 June)

Event Time Altitude Azimuth Distance (km) Brightness Sun altitude
Rises 16:19:56 0° 211° (SSW) 5,453 11.0 59.4°
Reaches altitude 10° 16:23:30 10° 203° (SSW) 4,803 10.9 59.8°
Maximum altitude 16:36:21 36° 143° (SE) 3,997 11.6 61.4°
Drops below altitude 10° 16:53:01 10° 87° (E) 6,235 11.5 63.1°
Sets 16:58:27 0° 80° (E) 7,217 11.6 63.6°
